PAGEOS 1 DEB, 2256

Orbit data source: Space-Track

PAGEOS 1 DEB, 2256 is space debris in LEO originally from a launch on Fri, 24 Jun 1966 UTC launched from the Air Force Western Test Range (AFWTR). Debris objects in space refer to the collection of defunct objects orbiting the Earth. Examples of debris include non-operational satellites, rocket bodies, and fragments generated from explosions, collisions, or faulty payload assembly.

Loading next visibility...
Identifier
2256, 1966-056C
Orbit
LEO
Country
Flag of USUS
Related business
Manufacturer
Goodyear
Mission
Spacecraft
Bus & Motor
ECHO CANISTER, Unknown motor
Mass
9 kg wet, 9 kg dry
Launch date (UTC)
1966-06-24 (60 years ago)
Launch vehicle
Unknown
Launch site
Air Force Western Test Range (AFWTR)
Object type
Payload
Rocket body
Debris
Shape & HBR
Unknown
Radar Cross Section
Large (>1 m²)

Expand to show TLE details & history
Last TLE update: 3 days ago

TLE from 3 days ago
0 PAGEOS 1 DEB
1 02256U 66056C   26171.94236415  .00000002  00000-0 -12044-3 0  9996
2 02256  86.9328 158.8668 0032485 173.4839 186.6394  7.93540665738776
Epoch: 2026-06-20T22:37Z
TLE epoch observation values (Epoch: 2026-06-20T22:37:00.262Z)
Latitude
-0.00008°
Longitude
-89.53405°
Altitude
4,275.691 km
Speed
6.107 km/s
True Right ascension
10h 35m 28s
True Declination
0° 00' 00"
Sunlit
Object was in daylight at epoch
Visualization orbit readout
Latitude
Unknown
Longitude
Unknown
Altitude
Unknown
Speed
Unknown
Apparent Right ascension
Unknown
Apparent Declination
Unknown
Sunlit
N/A
Visualization observer readout
Local Sidereal Time
10:50:18
Azimuth
Unknown
Elevation
Unknown
Doppler factor
Unknown
Orbital elements
Apogee altitude
4,271.801 km
Perigee altitude
4,202.832 km
Semi-major axis
10,615.453 km
Eccentricity
0.00325
Inclination
86.9328°
RAAN
158.8668°
Arg. of periapsis
173.4839°
True anomaly
186.59653°
Mean anomaly
186.6394°
Eccentric anomaly
186.61795°
Mean motion
1.98443 °/min
Orbital period
181.41 mins
BSTAR
-0.00012044
Loading maneuver chart data...
Computing Atmospheric mass density...

Documentation

Showing up to 5 results
|